• Em Portugal
  • Lista de países
  • Para 7 dias
  • Temperatura da água
  • Mapas de satélite
  • Mapa do tempo
  • Widgets de tempo
  • user-avatar
    Iniciar Sessão

    Previsão horária em Njiva

    Hoje, 19 Outubro, Sexta-feira

    Tempo Temperatura Precipitação Vento Pressão Humidade
    00:00 +24°C° 0 mm 3 m/s 664 mmHg 9%
    01:00 +23°C° 0 mm 2 m/s 664 mmHg 12%
    02:00 +21°C° 0 mm 2 m/s 664 mmHg 15%
    03:00 +20°C° 0 mm 2 m/s 664 mmHg 18%
    04:00 +19°C° 0 mm 2 m/s 664 mmHg 22%
    05:00 +21°C° 0 mm 2 m/s 665 mmHg 22%
    06:00 +23°C° 0 mm 2 m/s 666 mmHg 22%
    07:00 +24°C° 0 mm 2 m/s 667 mmHg 23%
    08:00 +27°C° 0 mm 3 m/s 667 mmHg 18%
    09:00 +31°C° 0 mm 3 m/s 668 mmHg 14%
    10:00 +35°C° 0 mm 4 m/s 668 mmHg 9%
    11:00 +37°C° 0 mm 4 m/s 668 mmHg 8%
    12:00 +39°C° 0 mm 3 m/s 667 mmHg 7%
    13:00 +42°C° 0 mm 3 m/s 667 mmHg 6%
    14:00 +41°C° 0 mm 2 m/s 666 mmHg 7%
    15:00 +41°C° 0 mm 2 m/s 666 mmHg 7%
    16:00 +41°C° 0 mm 1 m/s 665 mmHg 7%
    17:00 +38°C° 0 mm 2 m/s 665 mmHg 8%
    18:00 +36°C° 0 mm 2 m/s 665 mmHg 10%
    19:00 +33°C° 0 mm 3 m/s 664 mmHg 11%
    20:00 +33°C° 0 mm 3 m/s 665 mmHg 11%
    21:00 +31°C° 0 mm 3 m/s 665 mmHg 12%
    22:00 +32°C° 0 mm 4 m/s 666 mmHg 12%
    23:00 +29°C° 0 mm 3 m/s 666 mmHg 15%

    Amanhã, 20 Outubro, Sábado

    Tempo Temperatura Precipitação Vento Pressão Humidade
    00:00 +27°C° 0 mm 3 m/s 666 mmHg 18%
    01:00 +25°C° 0 mm 3 m/s 665 mmHg 21%
    02:00 +24°C° 0 mm 3 m/s 665 mmHg 24%
    03:00 +22°C° 0 mm 3 m/s 665 mmHg 27%
    04:00 +21°C° 0 mm 3 m/s 664 mmHg 30%
    05:00 +22°C° 0 mm 3 m/s 665 mmHg 28%
    06:00 +25°C° 0 mm 3 m/s 666 mmHg 25%
    07:00 +26°C° 0 mm 3 m/s 666 mmHg 23%
    08:00 +29°C° 0 mm 3 m/s 667 mmHg 19%
    09:00 +34°C° 0 mm 3 m/s 668 mmHg 14%
    10:00 +37°C° 0 mm 2 m/s 668 mmHg 10%
    11:00 +39°C° 0 mm 2 m/s 668 mmHg 10%
    12:00 +41°C° 0 mm 2 m/s 668 mmHg 10%
    13:00 +43°C° 0 mm 1 m/s 667 mmHg 10%
    14:00 +42°C° 0 mm 1 m/s 667 mmHg 10%
    15:00 +41°C° 0 mm 1 m/s 666 mmHg 11%
    16:00 +40°C° 0 mm 1 m/s 665 mmHg 11%
    17:00 +37°C° 0.1 mm 1 m/s 665 mmHg 13%
    18:00 +35°C° 0.1 mm 1 m/s 665 mmHg 16%
    19:00 +33°C° 0.1 mm 1 m/s 665 mmHg 18%
    20:00 +32°C° 0.2 mm 1 m/s 665 mmHg 20%
    21:00 +31°C° 0.2 mm 1 m/s 666 mmHg 23%
    22:00 +30°C° 0.2 mm 2 m/s 666 mmHg 25%
    23:00 +29°C° 0.1 mm 2 m/s 666 mmHg 27%

    Depois de amanhã, 21 Outubro, Domingo

    Tempo Temperatura Precipitação Vento Pressão Humidade
    00:00 +28°C° 0.1 mm 3 m/s 666 mmHg 29%
    01:00 +27°C° 0.1 mm 3 m/s 666 mmHg 30%
    02:00 +27°C° 0 mm 3 m/s 666 mmHg 31%
    03:00 +26°C° 0 mm 3 m/s 666 mmHg 31%
    04:00 +25°C° 0 mm 3 m/s 666 mmHg 32%
    05:00 +26°C° 0.1 mm 3 m/s 666 mmHg 31%
    06:00 +26°C° 0.1 mm 2 m/s 667 mmHg 30%
    07:00 +27°C° 0.1 mm 2 m/s 667 mmHg 29%
    08:00 +30°C° 0 mm 2 m/s 668 mmHg 24%
    09:00 +34°C° 0 mm 2 m/s 668 mmHg 20%
    10:00 +37°C° 0 mm 2 m/s 669 mmHg 16%
    11:00 +38°C° 0 mm 2 m/s 668 mmHg 15%
    12:00 +39°C° 0 mm 2 m/s 667 mmHg 14%
    13:00 +41°C° 0 mm 2 m/s 667 mmHg 13%
    14:00 +40°C° 0 mm 2 m/s 666 mmHg 14%
    15:00 +39°C° 0 mm 2 m/s 666 mmHg 16%
    16:00 +38°C° 0 mm 3 m/s 665 mmHg 17%
    17:00 +36°C° 0.1 mm 3 m/s 665 mmHg 21%
    18:00 +35°C° 0.1 mm 4 m/s 666 mmHg 25%
    19:00 +33°C° 0.1 mm 5 m/s 666 mmHg 29%
    20:00 +32°C° 0.2 mm 5 m/s 666 mmHg 33%
    21:00 +29°C° 0.2 mm 4 m/s 667 mmHg 37%
    22:00 +28°C° 0.2 mm 4 m/s 667 mmHg 41%
    23:00 +28°C° 0.7 mm 4 m/s 667 mmHg 46%

    22 Outubro, Segunda-feira

    Tempo Temperatura Precipitação Vento Pressão Humidade
    00:00 +27°C° 0.7 mm 3 m/s 667 mmHg 50%
    01:00 +26°C° 0.7 mm 3 m/s 667 mmHg 54%
    02:00 +26°C° 0 mm 3 m/s 667 mmHg 55%
    03:00 +26°C° 0 mm 2 m/s 667 mmHg 56%
    04:00 +26°C° 0 mm 1 m/s 667 mmHg 56%
    05:00 +26°C° 0 mm 2 m/s 667 mmHg 56%
    06:00 +26°C° 0 mm 2 m/s 668 mmHg 55%
    07:00 +27°C° 0 mm 2 m/s 668 mmHg 55%
    08:00 +28°C° 0 mm 3 m/s 668 mmHg 50%
    09:00 +29°C° 0 mm 3 m/s 668 mmHg 46%
    10:00 +30°C° 0 mm 4 m/s 668 mmHg 41%
    11:00 +31°C° 0 mm 3 m/s 668 mmHg 37%
    12:00 +34°C° 0 mm 3 m/s 667 mmHg 32%
    13:00 +35°C° 0 mm 3 m/s 667 mmHg 28%
    14:00 +36°C° 0 mm 2 m/s 666 mmHg 26%
    15:00 +36°C° 0 mm 2 m/s 666 mmHg 25%
    16:00 +36°C° 0 mm 2 m/s 666 mmHg 24%
    17:00 +35°C° 0.1 mm 2 m/s 666 mmHg 27%
    18:00 +34°C° 0.1 mm 3 m/s 666 mmHg 30%
    19:00 +31°C° 0.1 mm 3 m/s 666 mmHg 33%
    20:00 +30°C° 0.5 mm 4 m/s 667 mmHg 39%
    21:00 +28°C° 0.5 mm 4 m/s 667 mmHg 46%
    22:00 +27°C° 0.5 mm 5 m/s 667 mmHg 52%
    23:00 +26°C° 0.2 mm 4 m/s 667 mmHg 55%

    23 Outubro, Terça-feira

    Tempo Temperatura Precipitação Vento Pressão Humidade
    00:00 +26°C° 0.2 mm 3 m/s 667 mmHg 57%
    01:00 +25°C° 0.2 mm 2 m/s 667 mmHg 59%
    02:00 +25°C° 0.3 mm 2 m/s 667 mmHg 61%
    03:00 +25°C° 0.3 mm 3 m/s 667 mmHg 62%
    04:00 +24°C° 0.3 mm 3 m/s 667 mmHg 64%
    05:00 +23°C° 0.6 mm 4 m/s 668 mmHg 63%
    06:00 +23°C° 0.6 mm 4 m/s 668 mmHg 63%
    07:00 +23°C° 0.6 mm 5 m/s 669 mmHg 62%
    08:00 +25°C° 0.4 mm 4 m/s 669 mmHg 56%
    09:00 +27°C° 0.4 mm 4 m/s 669 mmHg 50%
    10:00 +28°C° 0.4 mm 4 m/s 669 mmHg 44%
    11:00 +30°C° 0 mm 3 m/s 669 mmHg 38%
    12:00 +32°C° 0 mm 2 m/s 668 mmHg 32%
    13:00 +35°C° 0 mm 2 m/s 668 mmHg 27%
    14:00 +34°C° 0 mm 1 m/s 667 mmHg 26%
    15:00 +34°C° 0 mm 1 m/s 667 mmHg 26%
    16:00 +34°C° 0 mm 1 m/s 666 mmHg 25%
    17:00 +33°C° 0.1 mm 1 m/s 666 mmHg 28%
    18:00 +32°C° 0.1 mm 2 m/s 667 mmHg 30%
    19:00 +31°C° 0.1 mm 2 m/s 667 mmHg 33%
    20:00 +30°C° 0.1 mm 3 m/s 667 mmHg 37%
    21:00 +29°C° 0.1 mm 3 m/s 667 mmHg 41%
    22:00 +28°C° 0.1 mm 4 m/s 668 mmHg 45%
    23:00 +27°C° 0.5 mm 4 m/s 668 mmHg 48%

    24 Outubro, Quarta-feira

    Tempo Temperatura Precipitação Vento Pressão Humidade
    00:00 +26°C° 0.5 mm 3 m/s 668 mmHg 50%
    01:00 +26°C° 0.5 mm 3 m/s 668 mmHg 53%
    02:00 +25°C° 0.7 mm 2 m/s 668 mmHg 57%
    03:00 +24°C° 0.7 mm 2 m/s 668 mmHg 60%
    04:00 +24°C° 0.7 mm 1 m/s 667 mmHg 64%
    05:00 +24°C° 0 mm 1 m/s 668 mmHg 61%
    06:00 +25°C° 0 mm 1 m/s 669 mmHg 58%
    07:00 +25°C° 0 mm 1 m/s 669 mmHg 55%
    08:00 +27°C° 0 mm 1 m/s 670 mmHg 48%
    09:00 +29°C° 0 mm 2 m/s 670 mmHg 41%
    10:00 +31°C° 0 mm 2 m/s 670 mmHg 34%
    11:00 +32°C° 0 mm 2 m/s 669 mmHg 33%
    12:00 +32°C° 0 mm 2 m/s 669 mmHg 32%
    13:00 +33°C° 0 mm 3 m/s 668 mmHg 31%
    14:00 +34°C° 0 mm 3 m/s 668 mmHg 30%
    15:00 +34°C° 0 mm 2 m/s 667 mmHg 29%
    16:00 +34°C° 0 mm 2 m/s 667 mmHg 28%
    17:00 +32°C° 0 mm 2 m/s 667 mmHg 30%
    18:00 +31°C° 0 mm 2 m/s 667 mmHg 32%
    19:00 +30°C° 0 mm 2 m/s 668 mmHg 34%
    20:00 +30°C° 0 mm 2 m/s 668 mmHg 35%
    21:00 +29°C° 0 mm 2 m/s 668 mmHg 37%
    22:00 +29°C° 0 mm 2 m/s 668 mmHg 39%
    23:00 +28°C° 0 mm 2 m/s 668 mmHg 40%
    Mostrar mais